2023/07/31 00:00:00, 2.7,22.2
2023/07/31 00:10:00, 7.0,22.1
2023/07/31 00:20:00, 0.2,21.9
2023/07/31 00:30:00, 0.0,22.0
2023/07/31 00:40:00, 0.0,22.0
2023/07/31 00:50:00, 0.0,21.8
2023/07/31 01:00:00, 0.0,21.6
2023/07/31 01:10:00, 0.0,21.2
2023/07/31 01:20:00, 0.0,21.6
2023/07/31 01:30:00, 0.0,21.6
2023/07/31 01:40:00, 0.0,21.5
2023/07/31 01:50:00, 0.0,21.5
2023/07/31 02:00:00, 0.0,21.5
2023/07/31 02:10:00, 0.0,21.6
2023/07/31 02:20:00, 0.0,21.4
2023/07/31 02:30:00, 0.0,21.3
2023/07/31 02:40:00, 0.0,21.2
2023/07/31 02:50:00, 0.0,21.3
2023/07/31 03:00:00, 0.0,21.3
2023/07/31 03:10:00, 0.0,21.2
2023/07/31 03:20:00, 0.0,21.2
2023/07/31 03:30:00, 0.0,21.0
2023/07/31 03:40:00, 0.0,21.1
2023/07/31 03:50:00, 0.0,20.9
2023/07/31 04:00:00, 0.0,20.9
2023/07/31 04:10:00, 0.0,20.8
2023/07/31 04:20:00, 0.0,20.8
2023/07/31 04:30:00, 0.0,20.8
2023/07/31 04:40:00, 0.0,21.0
2023/07/31 04:50:00, 0.0,20.8
2023/07/31 05:00:00, 0.0,20.7
2023/07/31 05:10:00, 0.0,20.4
2023/07/31 05:20:00, 0.0,20.2
2023/07/31 05:30:00, 0.2,20.6
2023/07/31 05:40:00, 8.5,20.7
2023/07/31 05:50:00, 8.2,21.1
2023/07/31 06:00:00,22.3,21.1
2023/07/31 06:10:00,22.3,21.7
2023/07/31 06:20:00,24.2,21.9
2023/07/31 06:30:00,24.5,22.2
2023/07/31 06:40:00,23.7,22.3
2023/07/31 06:50:00,25.6,22.3
2023/07/31 07:00:00,25.7,22.4
2023/07/31 07:10:00,26.1,22.6
2023/07/31 07:20:00,26.0,22.7
2023/07/31 07:30:00,25.9,23.2
2023/07/31 07:40:00,25.8,24.0
2023/07/31 07:50:00,17.8,24.3
2023/07/31 08:00:00, 4.4,24.5
2023/07/31 08:10:00, 0.0,24.8
2023/07/31 08:20:00, 0.0,25.0
2023/07/31 08:30:00, 0.0,25.2
2023/07/31 08:40:00, 0.0,25.6
2023/07/31 08:50:00, 0.6,25.7
2023/07/31 09:00:00, 1.4,25.3
2023/07/31 09:10:00, 4.4,25.8
2023/07/31 09:20:00, 5.6,25.9
2023/07/31 09:30:00,12.1,26.0
2023/07/31 09:40:00,16.9,25.9
2023/07/31 09:50:00,15.3,26.1
2023/07/31 10:00:00,17.9,27.4
2023/07/31 10:10:00,16.8,27.2
2023/07/31 10:20:00,15.4,27.4
2023/07/31 10:30:00,15.2,27.9
2023/07/31 10:40:00, 9.9,28.3
2023/07/31 10:50:00,10.8,28.6
2023/07/31 11:00:00,27.0,28.8
2023/07/31 11:10:00, 0.0,29.9
2023/07/31 11:20:00,---,31.6
2023/07/31 11:30:00,47.2,30.8
2023/07/31 11:40:00,35.0,30.6
2023/07/31 11:50:00, 0.4,31.8
2023/07/31 12:00:00,---,31.8
2023/07/31 12:10:00, 1.0,31.8
2023/07/31 12:20:00, 0.5,32.5
2023/07/31 12:30:00, 0.5,33.7
2023/07/31 12:40:00, 0.4,33.3
2023/07/31 12:50:00, 0.5,32.4
2023/07/31 13:00:00, 0.4,31.8
2023/07/31 13:10:00, 0.4,32.7
2023/07/31 13:20:00, 0.4,31.9
2023/07/31 13:30:00, 6.9,32.3
2023/07/31 13:40:00, 6.9,31.9
2023/07/31 13:50:00, 1.7,29.1
2023/07/31 14:00:00, 1.5,30.7
2023/07/31 14:10:00, 0.5,31.0
2023/07/31 14:20:00, 0.3,31.1
2023/07/31 14:30:00, 0.5,30.7
2023/07/31 14:40:00,20.4,30.0
2023/07/31 14:50:00,23.4,29.0
2023/07/31 15:00:00,21.4,28.4
2023/07/31 15:10:00,19.7,27.9
2023/07/31 15:20:00, 9.5,27.6
2023/07/31 15:30:00,14.0,27.8
2023/07/31 15:40:00,20.9,27.6
2023/07/31 15:50:00,22.2,27.9
2023/07/31 16:00:00,23.3,27.6
2023/07/31 16:10:00,23.9,27.6
2023/07/31 16:20:00,24.2,27.6
2023/07/31 16:30:00,24.1,27.6
2023/07/31 16:40:00,24.2,27.5
2023/07/31 16:50:00,24.3,27.4
2023/07/31 17:00:00,24.4,27.4
2023/07/31 17:10:00,24.2,26.9
2023/07/31 17:20:00,24.3,27.2
2023/07/31 17:30:00,24.2,27.0
2023/07/31 17:40:00,24.0,27.1
2023/07/31 17:50:00,24.3,26.8
2023/07/31 18:00:00,24.5,26.5
2023/07/31 18:10:00,24.3,26.3
2023/07/31 18:20:00,24.4,26.4
2023/07/31 18:30:00,24.4,26.6
2023/07/31 18:40:00,24.4,25.7
2023/07/31 18:50:00,24.4,25.4
2023/07/31 19:00:00,24.5,24.9
2023/07/31 19:10:00,24.5,24.7
2023/07/31 19:20:00,24.4,24.4
2023/07/31 19:30:00,23.8,24.3
2023/07/31 19:40:00,22.5,24.1
2023/07/31 19:50:00,17.7,24.0
2023/07/31 20:00:00, 5.8,24.0
2023/07/31 20:10:00, 0.5,24.0
2023/07/31 20:20:00, 0.0,23.7
2023/07/31 20:30:00, 0.0,23.6
2023/07/31 20:40:00, 0.0,23.4
2023/07/31 20:50:00, 0.0,23.8
2023/07/31 21:00:00, 0.0,23.6
2023/07/31 21:10:00, 0.0,23.6
2023/07/31 21:20:00, 0.0,23.3
2023/07/31 21:30:00, 0.0,23.5
2023/07/31 21:40:00, 0.0,23.5
2023/07/31 21:50:00, 0.0,23.0
2023/07/31 22:00:00, 0.0,22.9
2023/07/31 22:10:00, 0.0,22.9
2023/07/31 22:20:00, 0.0,22.8
2023/07/31 22:30:00, 0.0,22.5
2023/07/31 22:40:00, 1.1,22.5
2023/07/31 22:50:00, 4.6,22.7
2023/07/31 23:00:00, 5.6,22.6
2023/07/31 23:10:00, 5.9,22.5
2023/07/31 23:20:00, 1.6,22.4
2023/07/31 23:30:00, 0.0,22.2
2023/07/31 23:40:00, 0.0,22.2
2023/07/31 23:50:00, 0.0,22.1
